Tracking 31011 objects as of 13-Jul-2025
HD Live streaming from Space Station
objects crossing your sky now

STARLINK-30090

Track STARLINK-30090 now!
10-day predictions
STARLINK-30090 is classified as:


NORAD ID: 56293
Int'l Code: 2023-056H
Perigee: 565.7 km
Apogee: 566.7 km
Inclination: 43.0 °
Period: 95.8 minutes
Semi major axis: 6937 km
RCS: Unknown
Launch date: April 19, 2023
Source: United States (US)
Launch site: AIR FORCE EASTERN TEST RANGE (AFETR)
Your satellite tracking list
Your tracking list is empty




NASA's NSSDC Master Catalog

Two Line Element Set (TLE):
1 56293U 23056H   25193.40377939  .00000063  00000-0  19731-4 0  9997
2 56293  43.0015  76.3418 0000732 250.5401 109.5363 15.02541252123873
Source of the keplerian elements: AFSPC